{"data":{"norad_id":63758,"intl_designator":"2025-089H","name":"STARLINK-11705 [DTC]","alt_names":[],"object_type":"PAYLOAD","status":"ACTIVE","operator":null,"country":"US","launch_date":"2025-04-29","launch_site_code":"AFETR","launch_vehicle":null,"mission":null,"orbit_class":"UNKNOWN","rcs_meters":null,"size_class":null,"mass_kg":null,"dimensions":null,"purposes":["comms"],"wikipedia_slug":null,"has_3d_model":false,"image_url":null,"decayed_at":null,"tle_current":{"epoch":"2026-09-20T18:18:34.372512Z","epoch_age_seconds":127089,"freshness":"FRESH","line1":"1 63758U 25089H   26263.76289783  .00134441  00000+0  10323-2 0  9999","line2":"2 63758  42.9999 196.5679 0002033 244.1143 115.9516 15.70886550 80767","mean_motion":15.7088655,"eccentricity":0.0002033,"inclination_deg":42.9999,"raan_deg":196.5679,"arg_perigee_deg":244.1143,"mean_anomaly_deg":115.9516,"bstar":0.0010323,"rev_number":8076,"period_min":91.667982006721,"perigee_km":354.99289259211,"apogee_km":357.73113989211,"semimajor_km":6734.4990162421,"source":"CELESTRAK","updated_at":"2026-09-21T09:00:35.094133Z"}}}